Valparaiso, FL

10:54 AM CDT on April 19, 2018 (GMT -0500)
Eglin Air Force Base

Weather History for KVPS - October, 2012

Change the Weather History Date:

Tuesday, October 16, 2012

  Actual Average Record
Temperature  
Mean Temperature 64 °F -  
Max Temperature 79 °F 80 °F 89 °F (1949)
Min Temperature 52 °F 54 °F 38 °F (1955)
Growing Degree Days 14 (Base 50)    
Moisture  
Dew Point 46 °F    
Average Humidity 53    
Maximum Humidity 85    
Minimum Humidity 26    
Precipitation  
Precipitation 0.00 in - - ()
Sea Level Pressure  
Sea Level Pressure 29.94 in    
Wind  
Wind Speed 6 mph (NNE)    
Max Wind Speed 13 mph    
Max Gust Speed -    
Visibility 10 miles    
Events      
Averages and records for this station are not official NWS values.
T = Trace of Precipitation, MM = Missing Value Source: NWS Daily Summary

Daily Weather History Graph

Daily Weather History Graph

Search for Another Location

Airport or City:

Trip Planner

Search our weather history database for the weather conditions in past years. The results will help you decide how hot, cold, wet, or windy it might be!

Date:

Astronomy

Oct. 16, 2012 Rise Set
Actual Time 6:49 AM CDT 6:13 PM CDT
Civil Twilight 6:25 AM CDT 6:37 PM CDT
Nautical Twilight 5:57 AM CDT 7:05 PM CDT
Astronomical Twilight 5:29 AM CDT 7:33 PM CDT
Moon 8:02 AM CDT (10/16) 7:07 PM CDT (10/16)
Length of Visible Light 12h 12m
Length of Day
11h 23m
New Moon, 2% of the Moon is Illuminated
Oct 16
New Moon
Oct 21
First Quarter
Oct 29
Full
Nov 6
Last Quarter
Nov 13
New

Hourly Weather History & Observations

Time (CDT) Temp. Dew Point Humidity Pressure Visibility Wind Dir Wind Speed Gust Speed Precip Events Conditions
12:55 AM 63.0 °F 53.6 °F 71% 29.96 in 10.0 mi North 6.9 mph - N/A   Clear
1:55 AM 61.3 °F 52.5 °F 73% 29.95 in 10.0 mi North 6.9 mph - N/A   Clear
2:55 AM 58.6 °F 51.3 °F 76% 29.95 in 10.0 mi North 6.9 mph - N/A   Clear
3:55 AM 55.4 °F 49.8 °F 81% 29.94 in 10.0 mi North 5.8 mph - N/A   Clear
4:56 AM 54.3 °F 48.6 °F 81% 29.96 in 10.0 mi Calm Calm - N/A   Clear
5:55 AM 53.6 °F 48.2 °F 82% 29.97 in 10.0 mi NE 2.3 mph - N/A   Clear
6:55 AM 52.9 °F 48.4 °F 85% 29.97 in 10.0 mi North 4.6 mph - N/A   Partly Cloudy
7:56 AM 57.6 °F 49.1 °F 73% 29.99 in 10.0 mi NNE 4.6 mph - N/A   Partly Cloudy
8:55 AM 65.8 °F 46.9 °F 50% 30.01 in 10.0 mi NE 10.4 mph - N/A   Partly Cloudy
9:43 AM 68.0 °F 46.4 °F 46% 29.99 in 10.0 mi ENE 10.4 mph - N/A   Partly Cloudy
9:58 AM 69.8 °F 46.4 °F 43% 30.00 in 10.0 mi ENE 9.2 mph - N/A   Partly Cloudy
10:56 AM 73.8 °F 43.2 °F 33% 29.99 in 10.0 mi NE 12.7 mph - N/A   Mostly Cloudy
11:57 AM 74.7 °F 44.1 °F 33% 29.98 in 10.0 mi NNE 9.2 mph - N/A   Mostly Cloudy
12:57 PM 77.0 °F 41.9 °F 28% 29.94 in 10.0 mi North 11.5 mph - N/A   Mostly Cloudy
1:57 PM 77.7 °F 41.5 °F 27% 29.94 in 10.0 mi NE 10.4 mph - N/A   Mostly Cloudy
2:58 PM 77.4 °F 40.3 °F 26% 29.91 in 10.0 mi NNW 6.9 mph - N/A   Mostly Cloudy
3:55 PM 77.7 °F 42.6 °F 29% 29.91 in 10.0 mi NNE 9.2 mph - N/A   Mostly Cloudy
4:55 PM 75.6 °F 37.9 °F 26% 29.88 in 10.0 mi North 6.9 mph - N/A   Overcast
5:55 PM 72.3 °F 39.7 °F 31% 29.88 in 10.0 mi North 2.3 mph - N/A   Mostly Cloudy
6:55 PM 68.4 °F 44.4 °F 42% 29.88 in 10.0 mi NNE 2.3 mph - N/A   Mostly Cloudy
7:55 PM 66.6 °F 45.9 °F 47% 29.88 in 10.0 mi NNE 4.6 mph - N/A   Overcast
8:55 PM 65.7 °F 47.8 °F 53% 29.90 in 10.0 mi North 2.3 mph - N/A   Overcast
9:55 PM 62.4 °F 48.4 °F 60% 29.91 in 10.0 mi North 2.3 mph - N/A   Overcast
10:55 PM 61.2 °F 48.4 °F 63% 29.91 in 10.0 mi NNW 2.3 mph - N/A   Overcast
11:55 PM 61.2 °F 48.7 °F 64% 29.91 in 10.0 mi North 3.5 mph - N/A   Overcast